Time,TemperatureF,DewpointF,PressureIn,WindDirection,WindDirectionDegrees,WindSpeedMPH,WindSpeedGustMPH,Humidity,HourlyPrecipIn,Conditions,Clouds,dailyrainin,SoftwareType,DateUTC
2013-01-20 00:04:00,47.9,35.0,30.15,North,0,0.0,0.0,61,0.00,CLR,,0.00,WeatherDisplay:10.37,2013-01-20 08:04:00,
2013-01-20 00:09:00,47.8,35.0,30.15,North,0,0.0,0.0,61,0.00,CLR,,0.00,WeatherDisplay:10.37,2013-01-20 08:09:00,
2013-01-20 00:14:00,47.7,34.9,30.15,North,0,0.0,0.0,61,0.00,CLR,,0.00,WeatherDisplay:10.37,2013-01-20 08:14:00,
2013-01-20 00:19:00,47.8,35.0,30.15,North,0,0.0,0.0,61,0.00,CLR,,0.00,WeatherDisplay:10.37,2013-01-20 08:19:00,
2013-01-20 00:24:00,47.8,35.0,30.15,North,0,0.0,0.0,61,0.00,CLR,,0.00,WeatherDisplay:10.37,2013-01-20 08:24:00,
2013-01-20 00:29:00,47.8,35.0,30.14,North,0,0.0,0.0,61,0.00,CLR,,0.00,WeatherDisplay:10.37,2013-01-20 08:29:00,
2013-01-20 00:34:00,47.7,34.9,30.14,North,0,0.0,0.0,61,0.00,CLR,,0.00,WeatherDisplay:10.37,2013-01-20 08:34:00,
2013-01-20 00:39:00,47.5,34.7,30.14,North,0,0.0,0.0,61,0.00,CLR,,0.00,WeatherDisplay:10.37,2013-01-20 08:39:00,
2013-01-20 00:44:00,47.5,34.7,30.14,North,0,0.0,0.0,61,0.00,CLR,,0.00,WeatherDisplay:10.37,2013-01-20 08:44:00,
2013-01-20 00:49:00,47.3,34.5,30.14,North,0,0.0,0.0,61,0.00,CLR,,0.00,WeatherDisplay:10.37,2013-01-20 08:49:00,
2013-01-20 00:54:00,47.1,34.4,30.14,North,0,0.0,0.0,61,0.00,CLR,,0.00,WeatherDisplay:10.37,2013-01-20 08:54:00,
2013-01-20 00:59:00,47.1,34.4,30.14,North,0,0.0,0.0,61,0.00,CLR,,0.00,WeatherDisplay:10.37,2013-01-20 08:59:00,
2013-01-20 01:04:00,47.1,34.4,30.14,North,0,0.0,0.0,61,0.00,CLR,,0.00,WeatherDisplay:10.37,2013-01-20 09:04:00,
2013-01-20 01:14:00,46.9,34.2,30.14,North,0,0.0,0.0,61,0.00,CLR,,0.00,WeatherDisplay:10.37,2013-01-20 09:14:00,
2013-01-20 01:19:00,46.9,34.2,30.14,North,0,0.0,0.0,61,0.00,CLR,,0.00,WeatherDisplay:10.37,2013-01-20 09:19:00,
2013-01-20 01:24:00,46.8,33.6,30.14,North,0,0.0,0.0,60,0.00,CLR,,0.00,WeatherDisplay:10.37,2013-01-20 09:24:00,
2013-01-20 01:29:00,46.8,34.0,30.14,North,0,0.0,0.0,61,0.00,CLR,,0.00,WeatherDisplay:10.37,2013-01-20 09:29:00,
2013-01-20 01:34:00,46.8,34.0,30.14,North,0,0.0,0.0,61,0.00,CLR,,0.00,WeatherDisplay:10.37,2013-01-20 09:34:00,
2013-01-20 01:39:00,46.8,34.0,30.14,North,0,0.0,0.0,61,0.00,CLR,,0.00,WeatherDisplay:10.37,2013-01-20 09:39:00,
2013-01-20 01:44:00,46.8,34.0,30.14,North,0,0.0,0.0,61,0.00,CLR,,0.00,WeatherDisplay:10.37,2013-01-20 09:44:00,
2013-01-20 01:49:00,46.8,33.6,30.14,North,0,0.0,0.0,60,0.00,CLR,,0.00,WeatherDisplay:10.37,2013-01-20 09:49:00,
2013-01-20 01:54:00,46.6,33.4,30.14,North,0,0.0,0.0,60,0.00,CLR,,0.00,WeatherDisplay:10.37,2013-01-20 09:54:00,
2013-01-20 01:59:00,46.4,33.3,30.14,North,0,0.0,0.0,60,0.00,CLR,,0.00,WeatherDisplay:10.37,2013-01-20 09:59:00,
2013-01-20 02:04:00,46.4,33.3,30.14,North,0,0.0,0.0,60,0.00,CLR,,0.00,WeatherDisplay:10.37,2013-01-20 10:04:00,
2013-01-20 02:09:00,46.2,33.5,30.14,North,0,0.0,0.0,61,0.00,CLR,,0.00,WeatherDisplay:10.37,2013-01-20 10:09:00,
2013-01-20 02:14:00,46.0,33.3,30.14,North,0,0.0,0.0,61,0.00,CLR,,0.00,WeatherDisplay:10.37,2013-01-20 10:14:00,
2013-01-20 02:19:00,46.0,33.3,30.14,North,0,0.0,0.0,61,0.00,CLR,,0.00,WeatherDisplay:10.37,2013-01-20 10:19:00,
2013-01-20 02:24:00,45.9,33.2,30.14,North,0,0.0,0.0,61,0.00,CLR,,0.00,WeatherDisplay:10.37,2013-01-20 10:24:00,
2013-01-20 02:29:00,45.9,33.2,30.14,North,0,0.0,0.0,61,0.00,CLR,,0.00,WeatherDisplay:10.37,2013-01-20 10:29:00,
2013-01-20 02:34:00,45.9,33.2,30.14,North,0,0.0,0.0,61,0.00,CLR,,0.00,WeatherDisplay:10.37,2013-01-20 10:34:00,
2013-01-20 02:39:00,45.7,33.0,30.14,North,0,0.0,0.0,61,0.00,CLR,,0.00,WeatherDisplay:10.37,2013-01-20 10:39:00,
2013-01-20 02:44:00,45.7,33.0,30.14,North,0,0.0,0.0,61,0.00,CLR,,0.00,WeatherDisplay:10.37,2013-01-20 10:44:00,
2013-01-20 02:49:00,45.7,33.4,30.14,North,0,0.0,0.0,62,0.00,CLR,,0.00,WeatherDisplay:10.37,2013-01-20 10:49:00,
2013-01-20 02:54:00,45.7,33.4,30.14,North,0,0.0,0.0,62,0.00,CLR,,0.00,WeatherDisplay:10.37,2013-01-20 10:54:00,
2013-01-20 02:59:00,45.7,33.4,30.14,North,0,0.0,0.0,62,0.00,CLR,,0.00,WeatherDisplay:10.37,2013-01-20 10:59:00,
2013-01-20 03:04:00,45.7,33.4,30.14,North,0,0.0,0.0,62,0.00,CLR,,0.00,WeatherDisplay:10.37,2013-01-20 11:04:00,
2013-01-20 03:09:00,45.7,33.0,30.14,North,0,0.0,0.0,61,0.00,CLR,,0.00,WeatherDisplay:10.37,2013-01-20 11:09:00,
2013-01-20 03:14:00,45.5,32.8,30.14,North,0,0.0,0.0,61,0.00,CLR,,0.00,WeatherDisplay:10.37,2013-01-20 11:14:00,
2013-01-20 03:19:00,45.5,32.8,30.14,North,0,0.0,0.0,61,0.00,CLR,,0.00,WeatherDisplay:10.37,2013-01-20 11:19:00,
2013-01-20 03:24:00,45.4,33.2,30.13,North,0,0.0,0.0,62,0.00,CLR,,0.00,WeatherDisplay:10.37,2013-01-20 11:24:00,
2013-01-20 03:29:00,45.3,33.1,30.13,North,0,0.0,0.0,62,0.00,CLR,,0.00,WeatherDisplay:10.37,2013-01-20 11:29:00,
2013-01-20 03:39:00,45.1,32.9,30.13,North,0,0.0,0.0,62,0.00,CLR,,0.00,WeatherDisplay:10.37,2013-01-20 11:39:00,
2013-01-20 03:44:00,45.0,33.1,30.13,North,0,0.0,0.0,63,0.00,CLR,,0.00,WeatherDisplay:10.37,2013-01-20 11:44:00,
2013-01-20 03:49:00,45.0,32.7,30.13,North,0,0.0,0.0,62,0.00,CLR,,0.00,WeatherDisplay:10.37,2013-01-20 11:49:00,
2013-01-20 03:54:00,44.8,33.0,30.13,North,0,0.0,0.0,63,0.00,CLR,,0.00,WeatherDisplay:10.37,2013-01-20 11:54:00,
2013-01-20 03:59:00,44.8,32.9,30.13,North,0,0.0,0.0,63,0.00,CLR,,0.00,WeatherDisplay:10.37,2013-01-20 11:59:00,
2013-01-20 04:04:00,44.8,32.9,30.12,North,0,0.0,0.0,63,0.00,CLR,,0.00,WeatherDisplay:10.37,2013-01-20 12:04:00,
2013-01-20 04:09:00,44.8,32.9,30.12,North,0,0.0,0.0,63,0.00,CLR,,0.00,WeatherDisplay:10.37,2013-01-20 12:09:00,
2013-01-20 04:14:00,45.0,33.1,30.12,North,0,0.0,0.0,63,0.00,CLR,,0.00,WeatherDisplay:10.37,2013-01-20 12:14:00,
2013-01-20 04:19:00,45.0,32.7,30.12,North,0,0.0,0.0,62,0.00,CLR,,0.00,WeatherDisplay:10.37,2013-01-20 12:19:00,
2013-01-20 04:24:00,45.0,32.7,30.12,North,0,0.0,0.0,62,0.00,CLR,,0.00,WeatherDisplay:10.37,2013-01-20 12:24:00,
2013-01-20 04:29:00,45.0,32.7,30.12,North,0,0.0,0.0,62,0.00,CLR,,0.00,WeatherDisplay:10.37,2013-01-20 12:29:00,
2013-01-20 04:39:00,44.8,32.5,30.12,North,0,0.0,0.0,62,0.00,CLR,,0.00,WeatherDisplay:10.37,2013-01-20 12:39:00,
2013-01-20 04:44:00,44.8,32.5,30.12,North,0,0.0,0.0,62,0.00,CLR,,0.00,WeatherDisplay:10.37,2013-01-20 12:44:00,
2013-01-20 04:49:00,44.6,32.4,30.12,North,0,0.0,0.0,62,0.00,CLR,,0.00,WeatherDisplay:10.37,2013-01-20 12:49:00,
2013-01-20 04:54:00,44.6,32.8,30.12,North,0,0.0,0.0,63,0.00,CLR,,0.00,WeatherDisplay:10.37,2013-01-20 12:54:00,
2013-01-20 04:59:00,44.6,32.8,30.12,North,0,0.0,0.0,63,0.00,CLR,,0.00,WeatherDisplay:10.37,2013-01-20 12:59:00,
2013-01-20 05:04:00,44.6,32.8,30.12,North,0,0.0,0.0,63,0.00,CLR,,0.00,WeatherDisplay:10.37,2013-01-20 13:04:00,
2013-01-20 05:09:00,44.4,32.6,30.12,North,0,0.0,0.0,63,0.00,CLR,,0.00,WeatherDisplay:10.37,2013-01-20 13:09:00,
2013-01-20 05:14:00,44.2,32.4,30.12,North,0,0.0,0.0,63,0.00,CLR,,0.00,WeatherDisplay:10.37,2013-01-20 13:14:00,
2013-01-20 05:19:00,44.2,32.4,30.12,North,0,0.0,0.0,63,0.00,CLR,,0.00,WeatherDisplay:10.37,2013-01-20 13:19:00,
2013-01-20 05:24:00,44.1,32.3,30.12,North,0,0.0,0.0,63,0.00,CLR,,0.00,WeatherDisplay:10.37,2013-01-20 13:24:00,
2013-01-20 05:29:00,44.1,32.3,30.12,North,0,0.0,0.0,63,0.00,CLR,,0.00,WeatherDisplay:10.37,2013-01-20 13:29:00,
2013-01-20 05:34:00,44.2,32.4,30.12,North,0,0.0,0.0,63,0.00,CLR,,0.00,WeatherDisplay:10.37,2013-01-20 13:34:00,
2013-01-20 05:39:00,44.1,32.3,30.12,North,0,0.0,0.0,63,0.00,CLR,,0.00,WeatherDisplay:10.37,2013-01-20 13:39:00,
2013-01-20 05:44:00,43.9,32.1,30.12,North,0,0.0,0.0,63,0.00,CLR,,0.00,WeatherDisplay:10.37,2013-01-20 13:44:00,
2013-01-20 05:49:00,43.9,32.1,30.12,North,0,0.0,0.0,63,0.00,CLR,,0.00,WeatherDisplay:10.37,2013-01-20 13:49:00,
2013-01-20 05:54:00,43.7,31.9,30.12,North,0,0.0,0.0,63,0.00,CLR,,0.00,WeatherDisplay:10.37,2013-01-20 13:54:00,
2013-01-20 05:59:00,43.7,31.9,30.12,North,0,0.0,0.0,63,0.00,CLR,,0.00,WeatherDisplay:10.37,2013-01-20 13:59:00,
2013-01-20 06:04:00,43.7,31.9,30.12,North,0,0.0,0.0,63,0.00,CLR,,0.00,WeatherDisplay:10.37,2013-01-20 14:04:00,
2013-01-20 06:09:00,43.7,31.9,30.12,North,0,0.0,0.0,63,0.00,CLR,,0.00,WeatherDisplay:10.37,2013-01-20 14:09:00,
2013-01-20 06:14:00,43.9,32.1,30.12,North,0,0.0,0.0,63,0.00,CLR,,0.00,WeatherDisplay:10.37,2013-01-20 14:14:00,
2013-01-20 06:19:00,43.7,31.9,30.12,North,0,0.0,0.0,63,0.00,CLR,,0.00,WeatherDisplay:10.37,2013-01-20 14:19:00,
2013-01-20 06:24:00,43.7,31.9,30.12,North,0,0.0,0.0,63,0.00,CLR,,0.00,WeatherDisplay:10.37,2013-01-20 14:24:00,
2013-01-20 06:29:00,43.7,31.9,30.12,North,0,0.0,0.0,63,0.00,CLR,,0.00,WeatherDisplay:10.37,2013-01-20 14:29:00,
2013-01-20 06:34:00,43.9,32.1,30.12,North,0,0.0,0.0,63,0.00,CLR,,0.00,WeatherDisplay:10.37,2013-01-20 14:34:00,
2013-01-20 06:39:00,44.2,32.4,30.12,North,0,0.0,0.0,63,0.00,CLR,,0.00,WeatherDisplay:10.37,2013-01-20 14:39:00,
2013-01-20 06:44:00,44.2,32.0,30.12,North,0,0.0,0.0,62,0.00,CLR,,0.00,WeatherDisplay:10.37,2013-01-20 14:44:00,
2013-01-20 06:49:00,44.2,32.0,30.12,North,0,0.0,0.0,62,0.00,CLR,,0.00,WeatherDisplay:10.37,2013-01-20 14:49:00,
2013-01-20 06:59:00,44.2,32.0,30.12,North,0,0.0,0.0,62,0.00,CLR,,0.00,WeatherDisplay:10.37,2013-01-20 14:59:00,
2013-01-20 07:04:00,44.1,31.5,30.12,North,0,0.0,0.0,61,0.00,CLR,,0.00,WeatherDisplay:10.37,2013-01-20 15:04:00,
2013-01-20 07:09:00,43.9,31.3,30.12,North,0,0.0,0.0,61,0.00,CLR,,0.00,WeatherDisplay:10.37,2013-01-20 15:09:00,
2013-01-20 07:14:00,43.9,31.7,30.12,North,0,0.0,0.0,62,0.00,CLR,,0.00,WeatherDisplay:10.37,2013-01-20 15:14:00,
2013-01-20 07:19:00,43.7,31.5,30.12,North,0,0.0,0.0,62,0.00,CLR,,0.00,WeatherDisplay:10.37,2013-01-20 15:19:00,
2013-01-20 07:24:00,43.9,31.7,30.12,North,0,0.0,0.0,62,0.00,CLR,,0.00,WeatherDisplay:10.37,2013-01-20 15:24:00,
2013-01-20 07:29:00,43.9,31.7,30.12,North,0,0.0,0.0,62,0.00,CLR,,0.00,WeatherDisplay:10.37,2013-01-20 15:29:00,
2013-01-20 07:34:00,43.9,31.7,30.12,North,0,0.0,0.0,62,0.00,CLR,,0.00,WeatherDisplay:10.37,2013-01-20 15:34:00,
2013-01-20 07:39:00,43.9,31.7,30.12,North,0,0.0,0.0,62,0.00,CLR,,0.00,WeatherDisplay:10.37,2013-01-20 15:39:00,
2013-01-20 07:44:00,43.9,31.7,30.12,North,0,0.0,0.0,62,0.00,CLR,,0.00,WeatherDisplay:10.37,2013-01-20 15:44:00,
2013-01-20 07:49:00,43.9,31.7,30.12,North,0,0.0,0.0,62,0.00,CLR,,0.00,WeatherDisplay:10.37,2013-01-20 15:49:00,
2013-01-20 07:54:00,43.9,31.7,30.12,North,0,0.0,0.0,62,0.00,CLR,,0.00,WeatherDisplay:10.37,2013-01-20 15:54:00,
2013-01-20 07:59:00,44.1,31.9,30.13,North,0,0.0,0.0,62,0.00,CLR,,0.00,WeatherDisplay:10.37,2013-01-20 15:59:00,
2013-01-20 08:04:00,44.2,31.6,30.13,North,0,0.0,0.0,61,0.00,CLR,,0.00,WeatherDisplay:10.37,2013-01-20 16:04:00,
2013-01-20 08:09:00,44.2,31.6,30.13,North,0,0.0,0.0,61,0.00,CLR,,0.00,WeatherDisplay:10.37,2013-01-20 16:09:00,
2013-01-20 08:14:00,44.2,31.6,30.13,North,0,0.0,0.0,61,0.00,CLR,,0.00,WeatherDisplay:10.37,2013-01-20 16:14:00,
2013-01-20 08:19:00,44.4,31.8,30.13,North,0,0.0,0.0,61,0.00,CLR,,0.00,WeatherDisplay:10.37,2013-01-20 16:19:00,
2013-01-20 08:24:00,44.6,32.0,30.13,North,0,0.0,0.0,61,0.00,CLR,,0.00,WeatherDisplay:10.37,2013-01-20 16:24:00,
2013-01-20 08:29:00,44.9,32.2,30.13,North,0,0.0,0.0,61,0.00,CLR,,0.00,WeatherDisplay:10.37,2013-01-20 16:29:00,
2013-01-20 08:39:00,45.1,32.5,30.13,North,0,0.0,0.0,61,0.00,CLR,,0.00,WeatherDisplay:10.37,2013-01-20 16:39:00,
2013-01-20 08:44:00,45.3,32.2,30.13,North,0,0.0,0.0,60,0.00,CLR,,0.00,WeatherDisplay:10.37,2013-01-20 16:44:00,
2013-01-20 08:49:00,45.7,32.6,30.13,North,0,0.0,0.0,60,0.00,CLR,,0.00,WeatherDisplay:10.37,2013-01-20 16:49:00,
2013-01-20 08:54:00,45.9,32.8,30.13,North,0,0.0,0.0,60,0.00,CLR,,0.00,WeatherDisplay:10.37,2013-01-20 16:54:00,
2013-01-20 08:59:00,46.3,33.1,30.13,North,0,0.0,0.0,60,0.00,CLR,,0.00,WeatherDisplay:10.37,2013-01-20 16:59:00,
2013-01-20 09:04:00,46.8,33.6,30.13,North,0,0.0,0.0,60,0.00,CLR,,0.00,WeatherDisplay:10.37,2013-01-20 17:04:00,
2013-01-20 09:09:00,47.4,34.2,30.13,North,0,0.0,0.0,60,0.00,CLR,,0.00,WeatherDisplay:10.37,2013-01-20 17:09:00,
2013-01-20 09:14:00,47.8,34.6,30.13,North,0,0.0,0.0,60,0.00,CLR,,0.00,WeatherDisplay:10.37,2013-01-20 17:14:00,
2013-01-20 09:19:00,48.5,34.8,30.13,North,0,0.0,0.0,59,0.00,CLR,,0.00,WeatherDisplay:10.37,2013-01-20 17:19:00,
2013-01-20 09:24:00,48.9,35.2,30.13,North,0,0.0,0.0,59,0.00,CLR,,0.00,WeatherDisplay:10.37,2013-01-20 17:24:00,
2013-01-20 09:29:00,49.0,35.3,30.14,North,0,0.0,0.0,59,0.00,CLR,,0.00,WeatherDisplay:10.37,2013-01-20 17:29:00,
2013-01-20 09:34:00,49.6,35.4,30.14,North,0,0.0,0.0,58,0.00,CLR,,0.00,WeatherDisplay:10.37,2013-01-20 17:34:00,
2013-01-20 09:39:00,50.0,35.8,30.14,North,0,0.0,0.0,58,0.00,CLR,,0.00,WeatherDisplay:10.37,2013-01-20 17:39:00,
2013-01-20 09:44:00,50.4,36.1,30.14,North,0,0.0,0.0,58,0.00,CLR,,0.00,WeatherDisplay:10.37,2013-01-20 17:44:00,
2013-01-20 09:49:00,50.7,36.5,30.14,North,0,0.0,0.0,58,0.00,CLR,,0.00,WeatherDisplay:10.37,2013-01-20 17:49:00,
2013-01-20 09:54:00,51.1,36.4,30.14,North,0,0.0,0.0,57,0.00,CLR,,0.00,WeatherDisplay:10.37,2013-01-20 17:54:00,
2013-01-20 09:59:00,51.6,36.9,30.14,North,0,0.0,0.0,57,0.00,CLR,,0.00,WeatherDisplay:10.37,2013-01-20 17:59:00,
2013-01-20 10:04:00,52.5,37.7,30.14,North,0,0.0,0.0,57,0.00,CLR,,0.00,WeatherDisplay:10.37,2013-01-20 18:04:00,
2013-01-20 10:09:00,53.2,37.9,30.14,North,0,0.0,0.0,56,0.00,CLR,,0.00,WeatherDisplay:10.37,2013-01-20 18:09:00,
2013-01-20 10:14:00,53.9,38.6,30.14,North,0,0.0,0.0,56,0.00,CLR,,0.00,WeatherDisplay:10.37,2013-01-20 18:14:00,
2013-01-20 10:24:00,55.5,40.1,30.14,North,0,0.0,0.0,56,0.00,CLR,,0.00,WeatherDisplay:10.37,2013-01-20 18:24:00,
2013-01-20 10:29:00,56.2,40.7,30.14,North,0,0.0,0.0,56,0.00,CLR,,0.00,WeatherDisplay:10.37,2013-01-20 18:29:00,
2013-01-20 10:34:00,56.8,41.3,30.13,North,0,0.0,0.0,56,0.00,CLR,,0.00,WeatherDisplay:10.37,2013-01-20 18:34:00,
2013-01-20 10:39:00,57.7,42.5,30.13,North,0,0.0,0.0,57,0.00,CLR,,0.00,WeatherDisplay:10.37,2013-01-20 18:39:00,
2013-01-20 10:44:00,58.4,43.3,30.13,North,0,0.0,0.0,57,0.00,CLR,,0.00,WeatherDisplay:10.37,2013-01-20 18:44:00,
2013-01-20 10:49:00,59.0,43.8,30.13,North,0,0.0,0.0,57,0.00,CLR,,0.00,WeatherDisplay:10.37,2013-01-20 18:49:00,
2013-01-20 10:54:00,59.1,43.4,30.13,North,0,0.0,0.0,56,0.00,CLR,,0.00,WeatherDisplay:10.37,2013-01-20 18:54:00,
2013-01-20 10:59:00,59.0,43.3,30.13,North,0,0.0,0.0,56,0.00,CLR,,0.00,WeatherDisplay:10.37,2013-01-20 18:59:00,
2013-01-20 11:04:00,59.4,43.6,30.12,North,0,0.0,0.0,56,0.00,CLR,,0.00,WeatherDisplay:10.37,2013-01-20 19:04:00,
2013-01-20 11:09:00,61.6,45.8,30.12,North,0,0.0,0.0,56,0.00,CLR,,0.00,WeatherDisplay:10.37,2013-01-20 19:09:00,
2013-01-20 11:14:00,64.7,47.1,30.12,North,0,0.0,0.0,53,0.00,CLR,,0.00,WeatherDisplay:10.37,2013-01-20 19:14:00,
2013-01-20 11:19:00,66.7,47.5,30.12,North,0,0.0,0.0,50,0.00,CLR,,0.00,WeatherDisplay:10.37,2013-01-20 19:19:00,
2013-01-20 11:24:00,66.6,46.8,30.12,North,0,0.0,0.0,49,0.00,CLR,,0.00,WeatherDisplay:10.37,2013-01-20 19:24:00,
2013-01-20 11:34:00,64.5,44.9,30.11,North,0,0.0,0.0,49,0.00,CLR,,0.00,WeatherDisplay:10.37,2013-01-20 19:34:00,
2013-01-20 11:39:00,64.2,44.6,30.11,North,0,0.0,0.0,49,0.00,CLR,,0.00,WeatherDisplay:10.37,2013-01-20 19:39:00,
2013-01-20 11:44:00,64.4,44.8,30.10,North,0,0.0,0.0,49,0.00,CLR,,0.00,WeatherDisplay:10.37,2013-01-20 19:44:00,
2013-01-20 11:49:00,64.4,45.3,30.10,North,0,0.0,0.0,50,0.00,CLR,,0.00,WeatherDisplay:10.37,2013-01-20 19:49:00,
2013-01-20 11:54:00,64.5,44.9,30.10,North,0,0.0,0.0,49,0.00,CLR,,0.00,WeatherDisplay:10.37,2013-01-20 19:54:00,
2013-01-20 11:59:00,64.5,44.9,30.10,North,0,0.0,0.0,49,0.00,CLR,,0.00,WeatherDisplay:10.37,2013-01-20 19:59:00,
2013-01-20 12:04:00,64.6,45.0,30.09,North,0,0.0,0.0,49,0.00,CLR,,0.00,WeatherDisplay:10.37,2013-01-20 20:04:00,
2013-01-20 12:09:00,64.9,45.3,30.09,North,0,0.0,0.0,49,0.00,CLR,,0.00,WeatherDisplay:10.37,2013-01-20 20:09:00,
2013-01-20 12:14:00,65.1,44.9,30.09,North,0,0.0,0.0,48,0.00,CLR,,0.00,WeatherDisplay:10.37,2013-01-20 20:14:00,
2013-01-20 12:19:00,65.1,44.4,30.08,North,0,0.0,0.0,47,0.00,CLR,,0.00,WeatherDisplay:10.37,2013-01-20 20:19:00,
2013-01-20 12:24:00,65.3,44.0,30.08,North,0,0.0,0.0,46,0.00,CLR,,0.00,WeatherDisplay:10.37,2013-01-20 20:24:00,
2013-01-20 12:29:00,65.5,44.1,30.08,North,0,0.0,0.0,46,0.00,CLR,,0.00,WeatherDisplay:10.37,2013-01-20 20:29:00,
2013-01-20 12:34:00,65.5,43.6,30.08,North,0,0.0,0.0,45,0.00,CLR,,0.00,WeatherDisplay:10.37,2013-01-20 20:34:00,
2013-01-20 12:39:00,65.7,42.5,30.08,North,0,0.0,0.0,43,0.00,CLR,,0.00,WeatherDisplay:10.37,2013-01-20 20:39:00,
2013-01-20 12:44:00,65.8,42.1,30.07,North,0,0.0,0.0,42,0.00,CLR,,0.00,WeatherDisplay:10.37,2013-01-20 20:44:00,
2013-01-20 12:49:00,66.0,42.3,30.07,North,0,0.0,0.0,42,0.00,CLR,,0.00,WeatherDisplay:10.37,2013-01-20 20:49:00,
2013-01-20 12:54:00,66.1,42.4,30.07,North,0,0.0,0.0,42,0.00,CLR,,0.00,WeatherDisplay:10.37,2013-01-20 20:54:00,
2013-01-20 13:04:00,66.4,41.9,30.06,North,0,0.0,0.0,41,0.00,CLR,,0.00,WeatherDisplay:10.37,2013-01-20 21:04:00,
2013-01-20 13:09:00,66.3,41.3,30.07,North,0,0.0,0.0,40,0.00,CLR,,0.00,WeatherDisplay:10.37,2013-01-20 21:09:00,
2013-01-20 13:14:00,66.4,40.7,30.07,North,0,0.0,0.0,39,0.00,CLR,,0.00,WeatherDisplay:10.37,2013-01-20 21:14:00,
2013-01-20 13:19:00,66.4,40.7,30.06,North,0,0.0,0.0,39,0.00,CLR,,0.00,WeatherDisplay:10.37,2013-01-20 21:19:00,
2013-01-20 13:24:00,66.6,40.8,30.06,North,0,0.0,0.0,39,0.00,CLR,,0.00,WeatherDisplay:10.37,2013-01-20 21:24:00,
2013-01-20 13:29:00,66.6,40.8,30.06,North,0,0.0,0.0,39,0.00,CLR,,0.00,WeatherDisplay:10.37,2013-01-20 21:29:00,
2013-01-20 13:34:00,66.6,40.8,30.06,North,0,0.0,0.0,39,0.00,CLR,,0.00,WeatherDisplay:10.37,2013-01-20 21:34:00,
2013-01-20 13:39:00,66.6,40.1,30.05,North,0,0.0,0.0,38,0.00,CLR,,0.00,WeatherDisplay:10.37,2013-01-20 21:39:00,
2013-01-20 13:44:00,66.6,40.2,30.05,North,0,0.0,0.0,38,0.00,CLR,,0.00,WeatherDisplay:10.37,2013-01-20 21:44:00,
2013-01-20 13:49:00,66.7,40.3,30.05,North,0,0.0,0.0,38,0.00,CLR,,0.00,WeatherDisplay:10.37,2013-01-20 21:49:00,
2013-01-20 13:54:00,66.9,40.5,30.05,North,0,0.0,0.0,38,0.00,CLR,,0.00,WeatherDisplay:10.37,2013-01-20 21:54:00,
2013-01-20 13:59:00,67.1,41.3,30.05,North,0,0.0,0.0,39,0.00,CLR,,0.00,WeatherDisplay:10.37,2013-01-20 21:59:00,
2013-01-20 14:04:00,67.3,41.5,30.04,North,0,0.0,0.0,39,0.00,CLR,,0.00,WeatherDisplay:10.37,2013-01-20 22:04:00,
2013-01-20 14:09:00,67.6,41.1,30.04,North,0,0.0,0.0,38,0.00,CLR,,0.00,WeatherDisplay:10.37,2013-01-20 22:09:00,
2013-01-20 14:14:00,67.8,41.3,30.04,North,0,0.0,0.0,38,0.00,CLR,,0.00,WeatherDisplay:10.37,2013-01-20 22:14:00,
2013-01-20 14:19:00,68.0,41.4,30.04,North,0,0.0,0.0,38,0.00,CLR,,0.00,WeatherDisplay:10.37,2013-01-20 22:19:00,
2013-01-20 14:24:00,68.1,40.9,30.04,North,0,0.0,0.0,37,0.00,CLR,,0.00,WeatherDisplay:10.37,2013-01-20 22:24:00,
2013-01-20 14:29:00,68.2,41.6,30.04,North,0,0.0,0.0,38,0.00,CLR,,0.00,WeatherDisplay:10.37,2013-01-20 22:29:00,
2013-01-20 14:34:00,68.0,41.4,30.05,North,0,0.0,0.0,38,0.00,CLR,,0.00,WeatherDisplay:10.37,2013-01-20 22:34:00,
2013-01-20 14:39:00,68.0,40.7,30.05,North,0,0.0,0.0,37,0.00,CLR,,0.00,WeatherDisplay:10.37,2013-01-20 22:39:00,
2013-01-20 14:44:00,68.2,41.6,30.05,North,0,0.0,0.0,38,0.00,CLR,,0.00,WeatherDisplay:10.37,2013-01-20 22:44:00,
2013-01-20 14:49:00,68.1,41.5,30.05,North,0,0.0,0.0,38,0.00,CLR,,0.00,WeatherDisplay:10.37,2013-01-20 22:49:00,
2013-01-20 14:54:00,68.0,40.7,30.05,North,0,0.0,0.0,37,0.00,CLR,,0.00,WeatherDisplay:10.37,2013-01-20 22:54:00,
2013-01-20 15:04:00,68.0,40.7,30.05,North,0,0.0,0.0,37,0.00,CLR,,0.00,WeatherDisplay:10.37,2013-01-20 23:04:00,
2013-01-20 15:09:00,68.0,40.7,30.05,North,0,0.0,0.0,37,0.00,CLR,,0.00,WeatherDisplay:10.37,2013-01-20 23:09:00,
2013-01-20 15:14:00,68.2,40.9,30.05,North,0,0.0,0.0,37,0.00,CLR,,0.00,WeatherDisplay:10.37,2013-01-20 23:14:00,
2013-01-20 15:19:00,68.4,40.4,30.06,North,0,0.0,0.0,36,0.00,CLR,,0.00,WeatherDisplay:10.37,2013-01-20 23:19:00,
2013-01-20 15:24:00,68.4,40.4,30.06,North,0,0.0,0.0,36,0.00,CLR,,0.00,WeatherDisplay:10.37,2013-01-20 23:24:00,
2013-01-20 15:29:00,68.4,41.1,30.06,North,0,0.0,0.0,37,0.00,CLR,,0.00,WeatherDisplay:10.37,2013-01-20 23:29:00,
2013-01-20 15:34:00,68.5,41.2,30.06,North,0,0.0,0.0,37,0.00,CLR,,0.00,WeatherDisplay:10.37,2013-01-20 23:34:00,
2013-01-20 15:39:00,68.5,41.2,30.06,North,0,0.0,0.0,37,0.00,CLR,,0.00,WeatherDisplay:10.37,2013-01-20 23:39:00,
2013-01-20 15:49:00,68.5,41.2,30.06,North,0,0.0,0.0,37,0.00,CLR,,0.00,WeatherDisplay:10.37,2013-01-20 23:49:00,
2013-01-20 15:54:00,68.4,41.1,30.06,North,0,0.0,0.0,37,0.00,CLR,,0.00,WeatherDisplay:10.37,2013-01-20 23:54:00,
2013-01-20 15:59:00,68.2,41.6,30.06,North,0,0.0,0.0,38,0.00,CLR,,0.00,WeatherDisplay:10.37,2013-01-20 23:59:00,
2013-01-20 16:04:00,68.0,40.7,30.06,North,0,0.0,0.0,37,0.00,CLR,,0.00,WeatherDisplay:10.37,2013-01-21 00:04:00,
2013-01-20 16:09:00,68.0,40.7,30.06,North,0,0.0,0.0,37,0.00,CLR,,0.00,WeatherDisplay:10.37,2013-01-21 00:09:00,
2013-01-20 16:14:00,67.8,41.3,30.06,North,0,0.0,0.0,38,0.00,CLR,,0.00,WeatherDisplay:10.37,2013-01-21 00:14:00,
2013-01-20 16:19:00,67.6,41.1,30.06,North,0,0.0,0.0,38,0.00,CLR,,0.00,WeatherDisplay:10.37,2013-01-21 00:19:00,
2013-01-20 16:24:00,67.3,40.8,30.06,North,0,0.0,0.0,38,0.00,CLR,,0.00,WeatherDisplay:10.37,2013-01-21 00:24:00,
2013-01-20 16:29:00,67.1,40.6,30.06,North,0,0.0,0.0,38,0.00,CLR,,0.00,WeatherDisplay:10.37,2013-01-21 00:29:00,
2013-01-20 16:34:00,66.9,39.8,30.06,North,0,0.0,0.0,37,0.00,CLR,,0.00,WeatherDisplay:10.37,2013-01-21 00:34:00,
2013-01-20 16:39:00,66.7,39.6,30.06,North,0,0.0,0.0,37,0.00,CLR,,0.00,WeatherDisplay:10.37,2013-01-21 00:39:00,
2013-01-20 16:44:00,66.6,39.5,30.06,North,0,0.0,0.0,37,0.00,CLR,,0.00,WeatherDisplay:10.37,2013-01-21 00:44:00,
2013-01-20 16:49:00,66.6,40.1,30.06,North,0,0.0,0.0,38,0.00,CLR,,0.00,WeatherDisplay:10.37,2013-01-21 00:49:00,
2013-01-20 16:54:00,66.2,40.5,30.05,North,0,0.0,0.0,39,0.00,CLR,,0.00,WeatherDisplay:10.37,2013-01-21 00:54:00,
2013-01-20 16:59:00,65.8,40.2,30.05,North,0,0.0,0.0,39,0.00,CLR,,0.00,WeatherDisplay:10.37,2013-01-21 00:59:00,
2013-01-20 17:04:00,65.3,40.4,30.05,North,0,0.0,0.0,40,0.00,CLR,,0.00,WeatherDisplay:10.37,2013-01-21 01:04:00,
2013-01-20 17:09:00,64.8,40.5,30.05,North,0,0.0,0.0,41,0.00,CLR,,0.00,WeatherDisplay:10.37,2013-01-21 01:09:00,
2013-01-20 17:14:00,64.3,41.3,30.05,North,0,0.0,0.0,43,0.00,CLR,,0.00,WeatherDisplay:10.37,2013-01-21 01:14:00,
2013-01-20 17:19:00,63.7,41.4,30.06,North,0,0.0,0.0,44,0.00,CLR,,0.00,WeatherDisplay:10.37,2013-01-21 01:19:00,
2013-01-20 17:24:00,63.1,40.8,30.06,North,0,0.0,0.0,44,0.00,CLR,,0.00,WeatherDisplay:10.37,2013-01-21 01:24:00,
2013-01-20 17:29:00,62.6,40.9,30.06,North,0,0.0,0.0,45,0.00,CLR,,0.00,WeatherDisplay:10.37,2013-01-21 01:29:00,
2013-01-20 17:34:00,62.1,41.1,30.06,North,0,0.0,0.0,46,0.00,CLR,,0.00,WeatherDisplay:10.37,2013-01-21 01:34:00,
2013-01-20 17:39:00,61.7,40.7,30.06,North,0,0.0,0.0,46,0.00,CLR,,0.00,WeatherDisplay:10.37,2013-01-21 01:39:00,
2013-01-20 17:44:00,61.3,40.9,30.07,North,0,0.0,0.0,47,0.00,CLR,,0.00,WeatherDisplay:10.37,2013-01-21 01:44:00,
2013-01-20 17:49:00,60.8,40.4,30.07,North,0,0.0,0.0,47,0.00,CLR,,0.00,WeatherDisplay:10.37,2013-01-21 01:49:00,
2013-01-20 17:54:00,60.4,40.6,30.07,North,0,0.0,0.0,48,0.00,CLR,,0.00,WeatherDisplay:10.37,2013-01-21 01:54:00,
2013-01-20 17:59:00,60.1,40.3,30.07,North,0,0.0,0.0,48,0.00,CLR,,0.00,WeatherDisplay:10.37,2013-01-21 01:59:00,
2013-01-20 18:04:00,59.9,40.1,30.07,North,0,0.0,0.0,48,0.00,CLR,,0.00,WeatherDisplay:10.37,2013-01-21 02:04:00,
2013-01-20 18:09:00,59.4,40.2,30.07,North,0,0.0,0.0,49,0.00,CLR,,0.00,WeatherDisplay:10.37,2013-01-21 02:09:00,
2013-01-20 18:14:00,59.2,40.0,30.07,North,0,0.0,0.0,49,0.00,CLR,,0.00,WeatherDisplay:10.37,2013-01-21 02:14:00,
2013-01-20 18:19:00,58.7,39.6,30.07,North,0,0.0,0.0,49,0.00,CLR,,0.00,WeatherDisplay:10.37,2013-01-21 02:19:00,
2013-01-20 18:24:00,58.3,39.8,30.07,North,0,0.0,0.0,50,0.00,CLR,,0.00,WeatherDisplay:10.37,2013-01-21 02:24:00,
2013-01-20 18:29:00,58.0,39.5,30.07,North,0,0.0,0.0,50,0.00,CLR,,0.00,WeatherDisplay:10.37,2013-01-21 02:29:00,
2013-01-20 18:39:00,57.5,39.5,30.07,North,0,0.0,0.0,51,0.00,CLR,,0.00,WeatherDisplay:10.37,2013-01-21 02:39:00,
2013-01-20 18:44:00,57.2,39.2,30.08,North,0,0.0,0.0,51,0.00,CLR,,0.00,WeatherDisplay:10.37,2013-01-21 02:44:00,
2013-01-20 18:54:00,56.7,39.2,30.08,North,0,0.0,0.0,52,0.00,CLR,,0.00,WeatherDisplay:10.37,2013-01-21 02:54:00,
2013-01-20 18:59:00,56.5,39.5,30.08,North,0,0.0,0.0,53,0.00,CLR,,0.00,WeatherDisplay:10.37,2013-01-21 02:59:00,
2013-01-20 19:04:00,56.3,39.4,30.08,North,0,0.0,0.0,53,0.00,CLR,,0.00,WeatherDisplay:10.37,2013-01-21 03:04:00,
2013-01-20 19:09:00,56.0,39.1,30.08,North,0,0.0,0.0,53,0.00,CLR,,0.00,WeatherDisplay:10.37,2013-01-21 03:09:00,
2013-01-20 19:14:00,55.8,38.9,30.08,North,0,0.0,0.0,53,0.00,CLR,,0.00,WeatherDisplay:10.37,2013-01-21 03:14:00,
2013-01-20 19:19:00,55.8,39.4,30.08,North,0,0.0,0.0,54,0.00,CLR,,0.00,WeatherDisplay:10.37,2013-01-21 03:19:00,
2013-01-20 19:24:00,55.8,39.4,30.08,North,0,0.0,0.0,54,0.00,CLR,,0.00,WeatherDisplay:10.37,2013-01-21 03:24:00,
2013-01-20 19:29:00,55.6,39.2,30.08,North,0,0.0,0.0,54,0.00,CLR,,0.00,WeatherDisplay:10.37,2013-01-21 03:29:00,
2013-01-20 19:34:00,55.1,39.2,30.08,North,0,0.0,0.0,55,0.00,CLR,,0.00,WeatherDisplay:10.37,2013-01-21 03:34:00,
2013-01-20 19:39:00,54.9,39.0,30.08,North,0,0.0,0.0,55,0.00,CLR,,0.00,WeatherDisplay:10.37,2013-01-21 03:39:00,
2013-01-20 19:44:00,54.7,39.3,30.08,North,0,0.0,0.0,56,0.00,CLR,,0.00,WeatherDisplay:10.37,2013-01-21 03:44:00,
2013-01-20 19:49:00,54.3,38.9,30.08,North,0,0.0,0.0,56,0.00,CLR,,0.00,WeatherDisplay:10.37,2013-01-21 03:49:00,
2013-01-20 19:54:00,54.3,39.3,30.08,North,0,0.0,0.0,57,0.00,CLR,,0.00,WeatherDisplay:10.37,2013-01-21 03:54:00,
2013-01-20 19:59:00,54.0,39.1,30.08,North,0,0.0,0.0,57,0.00,CLR,,0.00,WeatherDisplay:10.37,2013-01-21 03:59:00,
2013-01-20 20:04:00,54.0,39.1,30.08,North,0,0.0,0.0,57,0.00,CLR,,0.00,WeatherDisplay:10.37,2013-01-21 04:04:00,
2013-01-20 20:09:00,54.0,39.5,30.08,North,0,0.0,0.0,58,0.00,CLR,,0.00,WeatherDisplay:10.37,2013-01-21 04:09:00,
2013-01-20 20:14:00,53.8,39.3,30.08,North,0,0.0,0.0,58,0.00,CLR,,0.00,WeatherDisplay:10.37,2013-01-21 04:14:00,
2013-01-20 20:19:00,53.7,39.2,30.08,North,0,0.0,0.0,58,0.00,CLR,,0.00,WeatherDisplay:10.37,2013-01-21 04:19:00,
2013-01-20 20:24:00,53.6,39.6,30.08,North,0,0.0,0.0,59,0.00,CLR,,0.00,WeatherDisplay:10.37,2013-01-21 04:24:00,
2013-01-20 20:29:00,53.6,39.6,30.08,North,0,0.0,0.0,59,0.00,CLR,,0.00,WeatherDisplay:10.37,2013-01-21 04:29:00,
2013-01-20 20:39:00,53.6,39.6,30.08,North,0,0.0,0.0,59,0.00,CLR,,0.00,WeatherDisplay:10.37,2013-01-21 04:39:00,
2013-01-20 20:44:00,53.5,39.5,30.09,North,0,0.0,0.0,59,0.00,CLR,,0.00,WeatherDisplay:10.37,2013-01-21 04:44:00,
2013-01-20 20:49:00,53.2,39.3,30.09,North,0,0.0,0.0,59,0.00,CLR,,0.00,WeatherDisplay:10.37,2013-01-21 04:49:00,
2013-01-20 20:54:00,53.1,39.5,30.09,North,0,0.0,0.0,60,0.00,CLR,,0.00,WeatherDisplay:10.37,2013-01-21 04:54:00,
2013-01-20 20:59:00,52.9,39.4,30.09,North,0,0.0,0.0,60,0.00,CLR,,0.00,WeatherDisplay:10.37,2013-01-21 04:59:00,
2013-01-20 21:04:00,52.7,39.2,30.09,North,0,0.0,0.0,60,0.00,CLR,,0.00,WeatherDisplay:10.37,2013-01-21 05:04:00,
2013-01-20 21:09:00,52.5,39.0,30.09,North,0,0.0,0.0,60,0.00,CLR,,0.00,WeatherDisplay:10.37,2013-01-21 05:09:00,
2013-01-20 21:14:00,52.3,39.3,30.09,North,0,0.0,0.0,61,0.00,CLR,,0.00,WeatherDisplay:10.37,2013-01-21 05:14:00,
2013-01-20 21:19:00,52.3,39.3,30.10,North,0,0.0,0.0,61,0.00,CLR,,0.00,WeatherDisplay:10.37,2013-01-21 05:19:00,
2013-01-20 21:24:00,52.2,39.1,30.09,North,0,0.0,0.0,61,0.00,CLR,,0.00,WeatherDisplay:10.37,2013-01-21 05:24:00,
2013-01-20 21:29:00,52.2,39.1,30.10,North,0,0.0,0.0,61,0.00,CLR,,0.00,WeatherDisplay:10.37,2013-01-21 05:29:00,
2013-01-20 21:34:00,52.0,38.9,30.10,North,0,0.0,0.0,61,0.00,CLR,,0.00,WeatherDisplay:10.37,2013-01-21 05:34:00,
2013-01-20 21:39:00,51.9,39.3,30.10,North,0,0.0,0.0,62,0.00,CLR,,0.00,WeatherDisplay:10.37,2013-01-21 05:39:00,
2013-01-20 21:44:00,51.8,39.2,30.10,North,0,0.0,0.0,62,0.00,CLR,,0.00,WeatherDisplay:10.37,2013-01-21 05:44:00,
2013-01-20 21:49:00,51.8,39.2,30.11,North,0,0.0,0.0,62,0.00,CLR,,0.00,WeatherDisplay:10.37,2013-01-21 05:49:00,
2013-01-20 21:54:00,51.7,39.1,30.11,North,0,0.0,0.0,62,0.00,CLR,,0.00,WeatherDisplay:10.37,2013-01-21 05:54:00,
2013-01-20 21:59:00,51.4,38.8,30.11,North,0,0.0,0.0,62,0.00,CLR,,0.00,WeatherDisplay:10.37,2013-01-21 05:59:00,
2013-01-20 22:04:00,51.4,38.8,30.11,North,0,0.0,0.0,62,0.00,CLR,,0.00,WeatherDisplay:10.37,2013-01-21 06:04:00,
2013-01-20 22:09:00,51.3,38.7,30.12,North,0,0.0,0.0,62,0.00,CLR,,0.00,WeatherDisplay:10.37,2013-01-21 06:09:00,
2013-01-20 22:14:00,51.3,38.7,30.12,North,0,0.0,0.0,62,0.00,CLR,,0.00,WeatherDisplay:10.37,2013-01-21 06:14:00,
2013-01-20 22:19:00,51.1,38.5,30.12,North,0,0.0,0.0,62,0.00,CLR,,0.00,WeatherDisplay:10.37,2013-01-21 06:19:00,
2013-01-20 22:24:00,50.8,38.6,30.11,North,0,0.0,0.0,63,0.00,CLR,,0.00,WeatherDisplay:10.37,2013-01-21 06:24:00,
2013-01-20 22:34:00,50.5,38.4,30.11,North,0,0.0,0.0,63,0.00,CLR,,0.00,WeatherDisplay:10.37,2013-01-21 06:34:00,
2013-01-20 22:39:00,50.4,38.2,30.11,North,0,0.0,0.0,63,0.00,CLR,,0.00,WeatherDisplay:10.37,2013-01-21 06:39:00,
2013-01-20 22:44:00,50.2,38.1,30.11,North,0,0.0,0.0,63,0.00,CLR,,0.00,WeatherDisplay:10.37,2013-01-21 06:44:00,
2013-01-20 22:49:00,50.0,38.3,30.11,North,0,0.0,0.0,64,0.00,CLR,,0.00,WeatherDisplay:10.37,2013-01-21 06:49:00,
2013-01-20 22:54:00,50.0,38.3,30.11,North,0,0.0,0.0,64,0.00,CLR,,0.00,WeatherDisplay:10.37,2013-01-21 06:54:00,
2013-01-20 22:59:00,49.8,38.1,30.11,North,0,0.0,0.0,64,0.00,CLR,,0.00,WeatherDisplay:10.37,2013-01-21 06:59:00,
2013-01-20 23:04:00,49.8,38.1,30.10,North,0,0.0,0.0,64,0.00,CLR,,0.00,WeatherDisplay:10.37,2013-01-21 07:04:00,
2013-01-20 23:09:00,49.8,38.1,30.10,North,0,0.0,0.0,64,0.00,CLR,,0.00,WeatherDisplay:10.37,2013-01-21 07:09:00,
2013-01-20 23:14:00,49.8,38.1,30.10,North,0,0.0,0.0,64,0.00,CLR,,0.00,WeatherDisplay:10.37,2013-01-21 07:14:00,
2013-01-20 23:24:00,49.5,37.8,30.10,North,0,0.0,0.0,64,0.00,CLR,,0.00,WeatherDisplay:10.37,2013-01-21 07:24:00,
2013-01-20 23:29:00,49.4,37.7,30.10,North,0,0.0,0.0,64,0.00,CLR,,0.00,WeatherDisplay:10.37,2013-01-21 07:29:00,
2013-01-20 23:34:00,49.3,37.6,30.10,North,0,0.0,0.0,64,0.00,CLR,,0.00,WeatherDisplay:10.37,2013-01-21 07:34:00,
2013-01-20 23:39:00,49.3,37.6,30.09,North,0,0.0,0.0,64,0.00,CLR,,0.00,WeatherDisplay:10.37,2013-01-21 07:39:00,
2013-01-20 23:44:00,49.1,37.4,30.10,North,0,0.0,0.0,64,0.00,CLR,,0.00,WeatherDisplay:10.37,2013-01-21 07:44:00,
2013-01-20 23:49:00,48.8,37.2,30.09,North,0,0.0,0.0,64,0.00,CLR,,0.00,WeatherDisplay:10.37,2013-01-21 07:49:00,
2013-01-20 23:54:00,48.7,37.0,30.10,North,0,0.0,0.0,64,0.00,CLR,,0.00,WeatherDisplay:10.37,2013-01-21 07:54:00,
2013-01-20 23:59:00,48.6,36.9,30.10,North,0,0.0,0.0,64,0.00,CLR,,0.00,WeatherDisplay:10.37,2013-01-21 07:59:00,